Погода Котельниково

Погода Котельниково : погода сейчас, прогноз погоды и архив. Всё, что Вы хотите узнать о погоде Котельниково!

Поиск расширенной информации на нашем сайте:

Другие новости

Новости СМИ2

Главная страница сайта

Новости сайта

03.07.2017

Напоминаем, что на нашем специализированном сайте Метеоцентр.Азия вы можете получить высокодетализированные автоматические прогнозы погоды по пунктам России, СНГ и мира в авиационном формате (включающие направление и скорость ветра, видимость, явления погоды, количество и форму облачности, нижнюю и верхнюю границу облачности).


Погода Котельниково - сегодня

Время (UTC), дата Ветер
(°,м/с) 
Видим.   Явления Облачность Т
(°С)
Тd
(°С)
f(%) Тe
(°С)
Pmin
(гПа)
dP
(гПа)
Po
(мм)
O2
(г/м3)
Тmin Tmax R s Состояние
почвы
15 17.10.17 270 (З) 1{11}  10 км    4/0 средняя 
[Ac As]
+11.2 +6.2 71 +12  1015.6  -0.2  757  292    +12.6       
18 17.10.17 300 (СЗ) 10 км    ясно 
+10.6 +6.7 77 +11  1017.1  1.4  758  293           
21 17.10.17 300 (СЗ) 10 км    ясно 
+10.2 +7.4 83 +9  1018.5  1.3  759  294           
00 18.10.17 290 (З) 10 км    ясно 
+10.1 +7.6 84 +9  1020.1  1.6  761  294           
03 18.10.17 260 (З) 10 км    ясно 
+7.6 +6.4 92 +9  1022  1.9  762  298  +7.6         
06 18.10.17 330 (СЗ) 10 км    10/10 600 м 
[Sc]
+9.1 +7.6 90 +10  1023.8  1.7  763  296  +7.4         
09 18.10.17 250 (З) н/о    н/о 
+13.2 +8.9 75 +13  1023.1  -0.5  763  292           
12 18.10.17 220 (ЮЗ) 10 км    10/10 600 м 
[Sc]
+13.9 +9.3 74 +14  1022.4  -0.7  762  291           
15 18.10.17 220 (ЮЗ) 10 км    10/10 600 м 
[Sc]
+10.5 +8.2 86 +10  1022  -0.7  762  294    +14.1       
18 18.10.17 220 (ЮЗ) 10 км    5/0 средняя 
[Ac trans]
+8.4 +6.4 87 +8  1022  0.1  762  297           
21 18.10.17 210 (ЮЗ) 10 км    ясно 
+7.9 +6 88 +7  1021.2  -0.8  761  297           
00 19.10.17 220 (ЮЗ) 10 км    ясно 
+8 +6.6 91 +7  1020.4  -0.8  761  297           
03 19.10.17 230 (ЮЗ) 10 км    ясно 
+8 +7.1 94 +7  1020.4  761  297  +7.3         
06 19.10.17 260 (З) 4000 м    10/10 600 м 
[St]
+11.2 +10.5 95 +12  1020.5  0.2  761  293           
09 19.10.17 260 (З) 6-10{10}  10 км    9/9 600 м 
[Cu med, cong]
+15.3 +11.2 77 +17  1019.6  -0.8  760  288           
12 19.10.17 240 (ЮЗ) 6{10}  10 км    6/6 600 м 
[Cu med, cong]
+17.2 +10.6 65 +19  1018.4  -1.2  759  286           
15 19.10.17 220 (ЮЗ) 10 км    4/4 600 м 
[Sc diur, vesp]
+13.4 +9.8 79 +15  1018.1  -0.3  759  290    +17.4       
18 19.10.17 190 (Ю) 10 км    4/0 средняя 
[Ac trans]
+7.9 +6.6 91 +8  1018.4  0.1  759  296           
21 19.10.17 170 (Ю) 10 км    ясно 
+6.5 +5.6 94 +6  1018  -0.4  759  298           
00 20.10.17 270 (З) 10 км    10/10 600 м 
[Sc]
+6.5 +5.6 94 +6  1018  -0.5  759  298           
03 20.10.17 290 (З) 4000 м  дымка  10/10 300 м 
[St]
+11.4 +10.3 93 +13  1017.8  0.4  759  292  +6.2         
06 20.10.17 270 (З) 2000 м  дымка  10/10 300 м 
[St]
+11.6 +10.8 95 +13  1018.4  0.7  759  292           
09 20.10.17 300 (СЗ) 4000 м  дымка  10/10 300 м 
[St]
+13.4 +11.4 88 +17  1018.5  0.1  759  290           
12 20.10.17 310 (СЗ) 4000 м  дымка  10/10 300 м 
[St]
+13.8 +11.3 85 +17  1018.4  759  289           
15 20.10.17 тихо ()   2000 м  дымка  10/10 300 м 
[St]
+12.9 +11.5 91 +16  1018.8  0.3  760  290    +13.9       
Время (UTC), дата Ветер
(°,м/с) 
Видим.   Явления Облачность Т
(°С)
Тd
(°С)
f(%) Тe
(°С)
Pmin
(гПа)
dP
(гПа)
Po
(мм)
O2
(г/м3)
Тmin Tmax R s Состояние
почвы

Для получения пояснительной информации подведите курсор к названию столбца.

ПОГОДА Котельниково - архив

Всё, что Вы хотите узнать о погоде Котельниково - удобно и подробно!

Выберите нужную дату (начиная с 1 января 2015* года) и нажмите кнопку "Найти".
Будут отображены архивные сводки погоды по пункту Котельниково, начиная с указанной даты.


Отображать данные в формате CSV (для использования в таблицах Excel)


Внимание! Наш архив погоды предназначен исключительно для личного некоммерческого использования в познавательных целях. Если Вам необходимы официальные справки о состоянии погоды (для производственных, юридических, коммерческих и т.п. целей), обращайтесь в органы Росгидромета.

*Примечание: данная дата относится к архиву по метеостанциям СССР (Россия, СНГ, Балтия).
Архив по метеостанциям Зарубежной Европы и Азии (кроме Китая) хранится 10 дней, по другим регионам земного шара (Китай, Африка, Америка, Австралия, Океания) - 1 день.

Котельниково - район местоположения метеостанции


Название, широта, долгота, высота метеостанции:
Котельниково 47.6°ш. 43.2°д. 49 м над ур. моря [Российская Федерация]

Дополнительная информация

В oтличие oт бoльшинства пoгoдных сайтoв мы публикуем пoдрoбную метеoинфoрмацию в детальнoм прoфессиoнальнoм фoрмате.

Характеристики температуры и влажнoсти вoздуха измеряются на высoте 2 м в тени вдали oт зданий и деревьев.
Скoрoсть ветра измеряется на высoте 10 м (на урoвне рoста челoвека скoрoсть ветра ниже в 1.5-2 раза). Если метеoстанция нахoдится в гoрoде или в лесу, тo скoрoсть ветра занижена на 2-4 м/с пo сравнению с oткрытым местoм. Скoрoсть ветра над акватoриями крупных рек и oзёр, а также на вершинах хoлмoв на 2-5 м/с выше, чем в oбычных услoвиях.
Атмoсфернoе давление в разных тoчках местнoсти мoжет значительнo oтличаться oт давления на метеoстанции, в зависимoсти oт услoвий рельефа (при пoдъёме на 10 м давление пoнижается примернo на 1 мм рт.ст.).